• In Latvia
  • List of Countries
  • For 7 days
  • Water Temperature
  • Satellite Maps
  • Weather Map
  • Weather Widgets
  • user-avatar
    Login

    Hourly Weather Sumgayit

    Today, 11 December, Sunday

    Time Temperature Precipitation Wind Pressure Humidity
    00:00 +2°C° 0 mm 5 mps 735 mmHg 62%
    01:00 +2°C° 0 mm 5 mps 736 mmHg 64%
    02:00 +2°C° 0 mm 5 mps 736 mmHg 66%
    03:00 +2°C° 0 mm 6 mps 735 mmHg 67%
    04:00 +2°C° 0 mm 5 mps 735 mmHg 71%
    05:00 +1°C° 0 mm 4 mps 736 mmHg 76%
    06:00 +2°C° 0 mm 3 mps 736 mmHg 80%
    07:00 +3°C° 0 mm 3 mps 736 mmHg 78%
    08:00 +5°C° 0 mm 2 mps 737 mmHg 75%
    09:00 +6°C° 0 mm 2 mps 737 mmHg 73%
    10:00 +7°C° 0 mm 3 mps 737 mmHg 68%
    11:00 +7°C° 0 mm 3 mps 736 mmHg 63%
    12:00 +7°C° 0 mm 4 mps 736 mmHg 58%
    13:00 +8°C° 0 mm 5 mps 736 mmHg 55%
    14:00 +8°C° 0 mm 5 mps 735 mmHg 53%
    15:00 +8°C° 0 mm 6 mps 735 mmHg 50%
    16:00 +7°C° 0 mm 6 mps 735 mmHg 53%
    17:00 +6°C° 0 mm 7 mps 735 mmHg 55%
    18:00 +5°C° 0 mm 7 mps 735 mmHg 57%
    19:00 +5°C° 0 mm 7 mps 735 mmHg 57%
    20:00 +5°C° 0 mm 7 mps 736 mmHg 56%
    21:00 +5°C° 0 mm 7 mps 736 mmHg 55%
    22:00 +4°C° 0 mm 6 mps 737 mmHg 62%
    23:00 +5°C° 0 mm 5 mps 738 mmHg 70%

    Tomorrow, 12 December, Monday

    Time Temperature Precipitation Wind Pressure Humidity
    00:00 +4°C° 0 mm 4 mps 738 mmHg 77%
    01:00 +4°C° 0 mm 3 mps 739 mmHg 79%
    02:00 +4°C° 0 mm 2 mps 739 mmHg 80%
    03:00 +5°C° 0 mm 1 mps 740 mmHg 82%
    04:00 +5°C° 0 mm 1 mps 740 mmHg 83%
    05:00 +5°C° 0 mm 1 mps 741 mmHg 84%
    06:00 +4°C° 0 mm 1 mps 741 mmHg 84%
    07:00 +4°C° 0 mm 2 mps 741 mmHg 81%
    08:00 +5°C° 0 mm 2 mps 741 mmHg 78%
    09:00 +5°C° 0 mm 3 mps 741 mmHg 75%
    10:00 +6°C° 0 mm 4 mps 741 mmHg 70%
    11:00 +7°C° 0 mm 6 mps 740 mmHg 65%
    12:00 +8°C° 0 mm 7 mps 740 mmHg 60%
    13:00 +8°C° 0 mm 7 mps 739 mmHg 58%
    14:00 +7°C° 0 mm 8 mps 738 mmHg 57%
    15:00 +7°C° 0 mm 8 mps 738 mmHg 55%
    16:00 +6°C° 0 mm 8 mps 737 mmHg 56%
    17:00 +5°C° 0 mm 8 mps 736 mmHg 58%
    18:00 +4°C° 0 mm 8 mps 736 mmHg 59%
    19:00 +5°C° 0 mm 9 mps 735 mmHg 58%
    20:00 +5°C° 0 mm 9 mps 735 mmHg 57%
    21:00 +5°C° 0 mm 9 mps 734 mmHg 56%
    22:00 +5°C° 0 mm 9 mps 734 mmHg 55%
    23:00 +5°C° 0 mm 9 mps 734 mmHg 54%

    Day after tomorrow, 13 December, Tuesday

    Time Temperature Precipitation Wind Pressure Humidity
    00:00 +5°C° 0 mm 9 mps 733 mmHg 53%
    01:00 +5°C° 0 mm 9 mps 733 mmHg 53%
    02:00 +5°C° 0 mm 8 mps 733 mmHg 53%
    03:00 +5°C° 0 mm 8 mps 733 mmHg 53%
    04:00 +5°C° 0 mm 7 mps 732 mmHg 56%
    05:00 +4°C° 0 mm 6 mps 732 mmHg 58%
    06:00 +5°C° 0 mm 5 mps 732 mmHg 60%
    07:00 +6°C° 0 mm 4 mps 733 mmHg 59%
    08:00 +6°C° 0 mm 4 mps 733 mmHg 57%
    09:00 +7°C° 0 mm 4 mps 734 mmHg 55%
    10:00 +8°C° 0 mm 4 mps 734 mmHg 53%
    11:00 +11°C° 0 mm 4 mps 734 mmHg 50%
    12:00 +12°C° 0 mm 3 mps 734 mmHg 47%
    13:00 +11°C° 0 mm 3 mps 734 mmHg 51%
    14:00 +11°C° 0 mm 3 mps 734 mmHg 56%
    15:00 +10°C° 0 mm 3 mps 734 mmHg 60%
    16:00 +8°C° 0 mm 4 mps 734 mmHg 68%
    17:00 +7°C° 0 mm 4 mps 734 mmHg 75%
    18:00 +6°C° 0 mm 5 mps 735 mmHg 82%
    19:00 +6°C° 0 mm 5 mps 735 mmHg 84%
    20:00 +4°C° 0 mm 6 mps 735 mmHg 85%
    21:00 +4°C° 0 mm 6 mps 735 mmHg 86%
    22:00 +4°C° 0 mm 6 mps 736 mmHg 87%
    23:00 +4°C° 0 mm 7 mps 736 mmHg 87%

    14 December, Wednesday

    Time Temperature Precipitation Wind Pressure Humidity
    00:00 +4°C° 0 mm 7 mps 736 mmHg 87%
    01:00 +4°C° 0.1 mm 8 mps 737 mmHg 87%
    02:00 +3°C° 0.1 mm 9 mps 737 mmHg 87%
    03:00 +3°C° 0.1 mm 10 mps 738 mmHg 87%
    04:00 +2°C° 0.1 mm 11 mps 738 mmHg 84%
    05:00 0°C° 0.1 mm 12 mps 739 mmHg 82%
    06:00 0°C° 0.1 mm 13 mps 740 mmHg 79%
    07:00 -1°C° 0.3 mm 13 mps 740 mmHg 79%
    08:00 -1°C° 0.3 mm 13 mps 741 mmHg 78%
    09:00 -2°C° 0.3 mm 13 mps 742 mmHg 78%
    10:00 -2°C° 0.3 mm 13 mps 742 mmHg 78%
    11:00 -2°C° 0.3 mm 13 mps 742 mmHg 77%
    12:00 -2°C° 0.3 mm 13 mps 742 mmHg 77%
    13:00 -4°C° 0.5 mm 13 mps 742 mmHg 78%
    14:00 -4°C° 0.5 mm 13 mps 742 mmHg 79%
    15:00 -5°C° 0.5 mm 12 mps 742 mmHg 80%
    16:00 -5°C° 0.6 mm 12 mps 743 mmHg 81%
    17:00 -5°C° 0.6 mm 12 mps 743 mmHg 82%
    18:00 -4°C° 0.6 mm 11 mps 744 mmHg 83%
    19:00 -4°C° 0.5 mm 11 mps 744 mmHg 83%
    20:00 -4°C° 0.5 mm 11 mps 745 mmHg 83%
    21:00 -4°C° 0.5 mm 10 mps 745 mmHg 83%
    22:00 -4°C° 0.3 mm 10 mps 745 mmHg 83%
    23:00 -4°C° 0.3 mm 10 mps 745 mmHg 83%

    15 December, Thursday

    Time Temperature Precipitation Wind Pressure Humidity
    00:00 -4°C° 0.3 mm 10 mps 745 mmHg 82%
    01:00 -4°C° 0.1 mm 9 mps 745 mmHg 82%
    02:00 -4°C° 0.1 mm 9 mps 745 mmHg 82%
    03:00 -4°C° 0.1 mm 8 mps 745 mmHg 82%
    04:00 -4°C° 0.1 mm 8 mps 745 mmHg 83%
    05:00 -3°C° 0.1 mm 7 mps 745 mmHg 83%
    06:00 -3°C° 0.1 mm 7 mps 745 mmHg 84%
    07:00 -3°C° 0.2 mm 6 mps 746 mmHg 84%
    08:00 -3°C° 0.2 mm 6 mps 746 mmHg 83%
    09:00 -3°C° 0.2 mm 6 mps 746 mmHg 83%
    10:00 -1°C° 0.1 mm 5 mps 746 mmHg 83%
    11:00 -1°C° 0.1 mm 5 mps 745 mmHg 82%
    12:00 -1°C° 0.1 mm 5 mps 745 mmHg 82%
    13:00 -1°C° 0 mm 4 mps 745 mmHg 82%
    14:00 -1°C° 0 mm 4 mps 745 mmHg 82%
    15:00 0°C° 0 mm 3 mps 745 mmHg 82%
    16:00 0°C° 0 mm 3 mps 745 mmHg 83%
    17:00 -1°C° 0 mm 3 mps 745 mmHg 84%
    18:00 -1°C° 0 mm 2 mps 746 mmHg 84%
    19:00 -1°C° 0 mm 2 mps 746 mmHg 84%
    20:00 -1°C° 0 mm 2 mps 746 mmHg 84%
    21:00 +1°C° 0 mm 1 mps 746 mmHg 84%
    22:00 0°C° 0 mm 1 mps 746 mmHg 84%
    23:00 0°C° 0 mm 1 mps 746 mmHg 84%

    16 December, Friday

    Time Temperature Precipitation Wind Pressure Humidity
    00:00 -1°C° 0 mm 1 mps 746 mmHg 85%
    01:00 -1°C° 0 mm 1 mps 746 mmHg 84%
    02:00 -1°C° 0 mm 1 mps 746 mmHg 83%
    03:00 -1°C° 0 mm 1 mps 746 mmHg 82%
    04:00 -3°C° 0 mm 2 mps 746 mmHg 81%
    05:00 -3°C° 0 mm 2 mps 746 mmHg 79%
    06:00 -3°C° 0 mm 2 mps 746 mmHg 78%
    07:00 -2°C° 0 mm 2 mps 746 mmHg 77%
    08:00 -2°C° 0 mm 2 mps 746 mmHg 76%
    09:00 -1°C° 0 mm 3 mps 746 mmHg 75%
    10:00 0°C° 0 mm 3 mps 746 mmHg 75%
    11:00 0°C° 0 mm 3 mps 745 mmHg 74%
    12:00 +1°C° 0 mm 3 mps 745 mmHg 74%
    13:00 +1°C° 0 mm 3 mps 745 mmHg 75%
    14:00 +1°C° 0 mm 3 mps 745 mmHg 76%
    15:00 +1°C° 0 mm 3 mps 744 mmHg 76%
    16:00 0°C° 0 mm 3 mps 745 mmHg 76%
    17:00 0°C° 0 mm 3 mps 745 mmHg 76%
    18:00 -1°C° 0 mm 3 mps 745 mmHg 76%
    19:00 -1°C° 0 mm 3 mps 745 mmHg 75%
    20:00 -1°C° 0 mm 3 mps 745 mmHg 73%
    21:00 -2°C° 0 mm 2 mps 745 mmHg 72%
    22:00 -2°C° 0 mm 3 mps 745 mmHg 71%
    23:00 -2°C° 0 mm 3 mps 745 mmHg 69%
    Show more